Location: Peebles
(55.6412°N, 3.1714°W)
Time: 10:03:32
(UTC+01:00)

CENTAUR R/B - Pass Details

Date: 26 September 2021
Orbit: 729 x 1458 km, 63.5° (Epoch: 16 October)

Event Time Altitude Azimuth Distance (km) Brightness Sun altitude
Rises 21:12:16 0° 196° (SSW) 3,424 5.3 -18.8°
Reaches altitude 10° 21:14:41 10° 188° (S) 2,577 4.5 -19.1°
Maximum altitude 21:20:16 40° 121° (ESE) 1,451 2.9 -19.8°
Drops below altitude 10° 21:26:52 10° 55° (NE) 3,067 4.9 -20.6°
Sets 21:30:00 0° 49° (NE) 4,150 5.6 -21.0°
